Tracking 25964 objects as of 12-Aug-2022
HD Live streaming from Space Station
objects crossing your sky now

OBJECT A

Track OBJECT A now!
10-day predictions


NORAD ID: 45249
Int'l Code: 2020-014A
Perigee: 453.4 km
Apogee: 463.6 km
Inclination: 35.0 °
Period: 93.6 minutes
Semi major axis: 6829 km
RCS: Unknown
Launch date: February 19, 2020
Source: People's Republic of China (PRC)
Launch site: Xichang Space Center, China (XSC)
aabbcc
Your satellite tracking list
Your tracking list is empty




NASA's NSSDC Master Catalog

Two Line Element Set (TLE):
1 45249U 20014A   22223.91152334  .00014731  00000-0  38071-3 0  9998
2 45249  35.0145  89.6466 0007495 248.3853 111.6068 15.38218585138619
Source of the keplerian elements: AFSPC